K1IC Weather Reports


Display with metric or nautical units.
time (UTC)temp
F
wind
direction
speed
MPH
gust
MPH
rain 1hr
in
rain 24hr
in
rain mn
in
humidity
%
barometer
mb
20260510212217 58 113 1.0 1.0 0.00 0.14 0.00 90 1011.7
20260510211237 58 0.0 0.0 0.00 0.14 0.00 90 1011.5
20260510210217 58 113 1.0 3.0 0.00 0.14 0.00 89 1011.5
20260510205216 59 135 4.0 6.0 0.00 0.14 0.00 87 1011.6
20260510204217 62 135 2.0 3.0 0.00 0.14 0.00 86 1011.4
20260510203216 61 113 2.0 2.0 0.00 0.14 0.00 87 1011.5
20260510202217 60 135 2.0 3.0 0.00 0.14 0.00 87 1011.5
20260510201217 60 135 2.0 3.0 0.00 0.14 0.00 88 1011.4
20260510200216 60 113 1.0 2.0 0.00 0.14 0.00 87 1011.6
20260510195236 60 0.0 1.0 0.00 0.14 0.00 87 1011.7
20260510194216 62 135 1.0 3.0 0.00 0.15 0.00 85 1011.6
20260510193236 62 0.0 1.0 0.00 0.16 0.00 83 1011.9
20260510192216 62 0.0 0.0 0.00 0.17 0.00 85 1011.9
20260510191237 61 0.0 1.0 0.00 0.19 0.00 86 1011.9
20260510190216 60 315 1.0 2.0 0.00 0.20 0.00 87 1012.2
20260510185216 60 0.0 1.0 0.00 0.21 0.00 87 1012.1
20260510184216 59 0.0 1.0 0.00 0.22 0.00 87 1012.1
20260510183216 59 158 2.0 4.0 0.00 0.24 0.00 87 1012.1
20260510182236 61 135 2.0 3.0 0.00 0.25 0.00 83 1012.1
20260510181236 65 135 3.0 7.0 0.00 0.26 0.00 81 1012.0
20260510180216 64 293 2.0 3.0 0.00 0.26 0.00 81 1012.2
20260510175216 64 248 2.0 4.0 0.00 0.27 0.00 82 1012.3
20260510174216 64 248 1.0 2.0 0.00 0.28 0.00 81 1012.3
20260510173236 63 203 1.0 2.0 0.00 0.28 0.00 85 1012.2
20260510172216 62 0.0 1.0 0.00 0.28 0.00 85 1012.4
20260510171216 61 0.0 0.0 0.00 0.28 0.00 87 1012.3
20260510170236 61 0.0 1.0 0.00 0.28 0.00 85 1012.3
20260510165216 60 248 1.0 3.0 0.00 0.28 0.00 86 1012.5
20260510164217 60 0.0 1.0 0.00 0.28 0.00 86 1012.5
20260510163216 61 248 1.0 2.0 0.00 0.28 0.00 85 1012.4
20260510162256 60 248 1.0 2.0 0.00 0.28 0.00 86 1012.5
20260510161216 60 293 2.0 3.0 0.00 0.28 0.00 86 1012.5
20260510160216 60 0.0 1.0 0.00 0.28 0.00 87 1012.5
20260510155216 60 0.0 1.0 0.00 0.28 0.00 87 1012.5
20260510154216 59 248 1.0 3.0 0.00 0.28 0.00 87 1012.6
20260510153216 59 0.0 0.0 0.00 0.28 0.00 89 1012.8
20260510152236 58 0.0 1.0 0.00 0.28 0.00 90 1013.0
20260510151216 56 0.0 1.0 0.00 0.28 0.00 91 1013.0
20260510150216 56 135 1.0 2.0 0.00 0.28 0.00 90 1013.0
20260510145216 55 135 1.0 2.0 0.00 0.28 0.00 91 1012.9
20260510144216 55 113 1.0 1.0 0.00 0.28 0.00 93 1012.8
20260510143225 54 158 1.0 2.0 0.00 0.28 0.00 93 1012.6
20260510142216 54 0.0 0.0 0.00 0.28 0.00 94 1012.3
20260510141216 53 113 2.0 2.0 0.00 0.28 0.00 94 1012.4
20260510140216 53 135 2.0 2.0 0.00 0.28 0.00 94 1012.5
20260510135216 53 0.0 1.0 0.00 0.28 0.00 94 1012.5
20260510134236 53 158 2.0 3.0 0.00 0.28 0.00 94 1012.4
20260510133216 53 158 2.0 3.0 0.00 0.28 0.00 94 1012.3
20260510132256 53 113 3.0 4.0 0.00 0.28 0.00 94 1012.4
20260510131236 53 113 1.0 2.0 0.00 0.28 0.00 95 1012.4
20260510130215 53 113 1.0 2.0 0.00 0.28 0.00 95 1012.4
20260510125216 53 158 2.0 3.0 0.00 0.28 0.00 95 1012.2
20260510124215 53 0.0 0.0 0.00 0.28 0.00 95 1012.1
20260510123216 53 0.0 1.0 0.00 0.28 0.00 96 1011.9
20260510122216 53 0.0 1.0 0.00 0.28 0.00 95 1011.6
20260510121235 53 0.0 2.0 0.00 0.28 0.00 95 1011.7
20260510120217 53 113 1.0 1.0 0.00 0.28 0.00 96 1011.6
20260510115215 53 135 1.0 2.0 0.00 0.28 0.00 96 1011.6
20260510114216 53 135 1.0 3.0 0.00 0.28 0.00 96 1011.4
20260510113216 53 135 2.0 3.0 0.00 0.28 0.00 96 1011.4
20260510112216 53 113 1.0 2.0 0.00 0.28 0.00 96 1011.4
20260510111215 52 135 2.0 3.0 0.00 0.28 0.00 96 1011.4
20260510110215 52 113 2.0 3.0 0.00 0.28 0.00 96 1011.4
20260510105215 52 0.0 0.0 0.00 0.28 0.00 96 1011.4
20260510104215 52 0.0 0.0 0.00 0.28 0.00 96 1011.2
20260510103215 52 0.0 0.0 0.00 0.28 0.00 96 1011.3
20260510102236 52 0.0 0.0 0.00 0.28 0.00 96 1011.3
20260510101215 52 0.0 0.0 0.00 0.28 0.00 96 1011.2
20260510100215 52 0.0 0.0 0.00 0.28 0.00 96 1011.3
20260510095215 52 0.0 0.0 0.00 0.28 0.00 96 1011.3
20260510094215 52 0.0 0.0 0.00 0.28 0.00 96 1011.4
20260510093235 52 0.0 0.0 0.00 0.28 0.00 96 1011.5
20260510092215 52 0.0 0.0 0.00 0.28 0.00 96 1011.6
20260510091217 52 0.0 0.0 0.00 0.28 0.00 96 1011.6
20260510090217 52 0.0 0.0 0.00 0.28 0.00 96 1011.5
20260510085217 52 0.0 0.0 0.00 0.28 0.00 96 1011.4
20260510084217 52 0.0 0.0 0.00 0.28 0.00 96 1011.6
20260510083217 52 0.0 0.0 0.00 0.28 0.00 96 1011.5
20260510082217 52 0.0 0.0 0.00 0.28 0.00 96 1010.9
20260510081217 52 0.0 0.0 0.00 0.28 0.00 96 1010.7
20260510080217 52 0.0 0.0 0.00 0.28 0.00 96 1010.7
20260510075217 52 0.0 0.0 0.00 0.28 0.00 96 1010.6
20260510074217 52 0.0 0.0 0.00 0.28 0.00 96 1010.6
20260510073237 52 0.0 0.0 0.00 0.29 0.00 96 1010.7
20260510072217 52 0.0 0.0 0.00 0.29 0.00 96 1010.6
20260510071217 52 0.0 0.0 0.00 0.29 0.00 96 1010.7
20260510070218 52 0.0 0.0 0.00 0.29 0.00 96 1010.7
20260510065217 52 0.0 0.0 0.00 0.29 0.00 96 1010.6
20260510064217 52 0.0 0.0 0.00 0.29 0.00 96 1010.7
20260510063217 52 0.0 0.0 0.00 0.29 0.00 96 1010.6
20260510062217 52 0.0 0.0 0.00 0.29 0.00 95 1010.4
20260510061217 52 0.0 0.0 0.00 0.29 0.00 95 1010.3
20260510060217 52 0.0 0.0 0.00 0.29 0.00 96 1010.3
20260510055217 52 0.0 0.0 0.00 0.29 0.00 95 1010.4
20260510054217 52 0.0 0.0 0.00 0.29 0.00 95 1010.6
20260510053216 52 0.0 0.0 0.00 0.29 0.00 95 1010.7
20260510052217 53 0.0 0.0 0.00 0.29 0.00 95 1010.6
20260510051217 53 0.0 0.0 0.00 0.29 0.00 95 1010.8
20260510050217 53 0.0 0.0 0.00 0.29 0.00 95 1010.7
20260510045217 53 0.0 0.0 0.00 0.29 0.00 95 1010.7
20260510044237 53 0.0 0.0 0.00 0.29 0.00 95 1010.7
20260510043216 53 0.0 0.0 0.00 0.29 0.00 95 1010.6
20260510042217 53 0.0 0.0 0.00 0.29 0.00 96 1010.5
20260510041217 53 0.0 0.0 0.00 0.29 0.00 95 1010.3
20260510040235 53 0.0 0.0 0.00 0.29 0.00 95 1010.2
20260510035216 53 0.0 0.0 0.00 0.29 0.29 95 1010.2
20260510034216 53 0.0 0.0 0.00 0.29 0.29 95 1010.2
20260510033215 53 0.0 0.0 0.00 0.29 0.29 95 1010.1
20260510032235 53 0.0 0.0 0.00 0.29 0.29 95 1010.1
20260510031235 53 0.0 0.0 0.00 0.29 0.29 95 1010.2
20260510030215 53 0.0 0.0 0.00 0.29 0.29 95 1010.2
20260510025235 53 0.0 0.0 0.00 0.29 0.29 95 1010.3
20260510024215 53 0.0 0.0 0.00 0.29 0.29 95 1010.4
20260510023215 53 0.0 0.0 0.00 0.29 0.29 95 1010.4
20260510022215 53 0.0 0.0 0.00 0.29 0.29 95 1010.3
20260510021216 53 0.0 0.0 0.00 0.29 0.29 95 1010.3
20260510020215 53 0.0 0.0 0.00 0.29 0.29 95 1010.3
20260510015215 53 0.0 0.0 0.00 0.29 0.29 95 1010.3
20260510014215 53 0.0 0.0 0.00 0.29 0.29 95 1010.3
20260510013215 53 0.0 0.0 0.00 0.29 0.29 95 1010.1
20260510012215 53 0.0 0.0 0.00 0.29 0.29 95 1009.9
20260510011217 53 0.0 0.0 0.00 0.29 0.29 95 1010.0
20260510010217 52 0.0 0.0 0.00 0.29 0.29 95 1009.9
20260510005217 53 0.0 0.0 0.00 0.29 0.29 95 1009.8
20260510004217 53 0.0 0.0 0.00 0.29 0.29 95 1009.8
20260510003257 53 0.0 0.0 0.00 0.29 0.29 95 1009.7
20260510002217 53 0.0 0.0 0.00 0.29 0.29 95 1009.7
20260510001217 53 0.0 0.0 0.00 0.29 0.29 95 1009.7
20260510000219 53 113 1.0 2.0 0.01 0.29 0.29 95 1009.7
20260509235217 54 0.0 0.0 0.03 0.29 0.29 95 1009.9
20260509234217 53 0.0 0.0 0.04 0.29 0.29 94 1009.6
20260509233217 53 0.0 2.0 0.08 0.29 0.29 94 1009.2
20260509232217 53 0.0 1.0 0.10 0.29 0.29 94 1008.9
20260509231217 54 135 4.0 5.0 0.11 0.29 0.29 94 1009.8
20260509230217 54 0.0 1.0 0.10 0.28 0.28 94 1010.3
20260509225217 54 0.0 1.0 0.09 0.26 0.26 94 1010.1
20260509224217 55 0.0 0.0 0.09 0.25 0.25 94 1010.3
20260509223217 55 0.0 0.0 0.06 0.21 0.21 94 1010.6
20260509222217 55 0.0 0.0 0.04 0.19 0.19 94 1010.2
20260509221217 55 0.0 1.0 0.03 0.18 0.18 94 1010.3
20260509220217 55 0.0 0.0 0.03 0.18 0.18 94 1010.4
20260509215217 55 0.0 0.0 0.02 0.17 0.17 94 1010.2
20260509214238 55 0.0 0.0 0.01 0.16 0.16 93 1010.6
20260509213217 56 0.0 0.0 0.00 0.15 0.15 93 1010.6